Location: Rock River
(41.7433°N, 105.9768°W)
Time: 23:51:05
(UTC+00:00)

ISS - Visible Passes

Search period start: 26 January 2022 00:00
Search period end: 05 February 2022 00:00
Orbit: 413 x 422 km, 51.6° (Epoch: 26 January)

Date Brightness Start Highest point End Pass type
(mag) Time Alt. Az. Time Alt. Az. Time Alt. Az.
26 Jan -1.5 01:50:17 10° NW 01:52:19 15° N 01:52:23 15° N visible
27 Jan -1.6 01:01:51 10° NW 01:04:02 16° N 01:06:11 10° NNE visible
28 Jan -1.6 01:51:18 10° NNW 01:53:10 16° N 01:53:10 16° N visible
29 Jan -1.6 01:03:09 10° NW 01:05:11 15° N 01:07:08 10° NE visible
29 Jan -0.7 02:39:49 10° NW 02:40:04 11° NW 02:40:04 11° NW visible
30 Jan -2.0 01:51:52 10° NW 01:54:04 21° N 01:54:04 21° N visible
31 Jan -1.9 01:03:54 10° NNW 01:06:17 18° NNE 01:08:08 12° NE visible
31 Jan -1.0 02:40:17 10° NW 02:41:04 16° NW 02:41:04 16° NW visible
01 Feb -3.0 01:52:18 10° NW 01:55:14 37° NNE 01:55:14 37° NNE visible
02 Feb -2.6 01:04:22 10° NW 01:07:16 27° NNE 01:09:29 14° ENE visible
02 Feb -1.4 02:40:56 10° WNW 02:42:27 24° WNW 02:42:27 24° WNW visible
03 Feb -3.9 01:52:49 10° NW 01:56:10 89° SW 01:56:51 53° SE visible
04 Feb -3.6 01:04:47 10° NW 01:08:05 55° NNE 01:11:22 10° ESE visible
04 Feb -1.2 02:42:13 10° W 02:44:26 18° SW 02:44:26 18° SW visible
